Total_Precipitation_Accumulation
0.95 1.06 1.00 0.82 0.75 0.70 0.86 1.09 1.24 1.17 1.07 0.97 1.00 1.05 1.03 1.09 1.18 1.07 1.09 1.13 1.03 0.91 0.80 0.74 0.71 0.69 0.70 0.76 0.82 0.84 0.84 0.89 1.00 1.15 1.33 1.54 1.77 1.98
1.14 1.14 1.07 0.95 0.97 0.81 0.84 1.02 1.20 1.33 1.31 0.97 0.99 1.01 1.08 1.01 1.13 1.05 1.10 1.13 0.99 0.90 0.78 0.73 0.70 0.68 0.66 0.65 0.68 0.73 0.74 0.71 0.75 0.82 0.90 0.99 1.08 1.23
1.36 1.27 1.22 1.18 1.16 1.03 1.04 1.11 1.18 1.33 1.40 1.15 1.07 1.18 1.25 1.21 1.21 1.17 1.08 1.10 1.04 1.00 0.84 0.77 0.71 0.67 0.66 0.65 0.64 0.64 0.69 0.69 0.68 0.68 0.71 0.74 0.74 0.76
1.72 1.78 1.57 1.44 1.39 1.26 1.25 1.23 1.22 1.30 1.37 1.36 1.29 1.32 1.33 1.33 1.31 1.14 0.95 0.91 0.95 1.03 0.93 0.84 0.80 0.74 0.69 0.66 0.65 0.64 0.63 0.63 0.65 0.63 0.61 0.61 0.65 0.66
1.60 1.78 1.77 1.80 1.63 1.54 1.46 1.37 1.32 1.26 1.36 1.36 1.31 1.43 1.47 1.47 1.33 1.04 0.93 0.95 0.88 1.01 0.99 0.84 0.75 0.73 0.68 0.62 0.56 0.54 0.54 0.55 0.56 0.57 0.54 0.51 0.50 0.51
1.45 1.51 1.62 1.81 1.77 1.71 1.61 1.56 1.53 1.52 1.54 1.50 1.47 1.56 1.74 1.78 1.54 1.20 1.05 1.02 0.96 0.84 0.89 0.81 0.75 0.71 0.67 0.60 0.56 0.53 0.51 0.52 0.53 0.53 0.54 0.53 0.49 0.46
1.48 1.42 1.41 1.58 1.66 1.67 1.52 1.52 1.61 1.65 1.65 1.62 1.62 1.70 1.79 1.88 1.60 1.33 1.16 1.09 1.04 0.92 0.82 0.73 0.69 0.68 0.71 0.74 0.71 0.62 0.55 0.54 0.55 0.57 0.57 0.56 0.53 0.51
1.73 1.63 1.51 1.42 1.43 1.47 1.53 1.55 1.56 1.56 1.60 1.64 1.63 1.68 1.74 1.79 1.84 1.65 1.40 1.18 1.07 0.96 0.91 0.80 0.73 0.69 0.62 0.58 0.68 0.66 0.61 0.57 0.54 0.53 0.55 0.57 0.55 0.51
1.68 1.66 1.46 1.33 1.38 1.35 1.50 1.54 1.46 1.39 1.34 1.39 1.45 1.51 1.81 1.99 2.15 1.89 1.63 1.43 1.21 1.06 0.97 0.84 0.76 0.70 0.61 0.59 0.69 0.61 0.57 0.54 0.51 0.50 0.49 0.49 0.51 0.52
1.32 1.42 1.39 1.30 1.29 1.31 1.24 1.15 1.10 1.10 1.07 1.01 1.08 1.28 1.58 1.99 2.20 2.18 2.09 1.85 1.62 1.30 1.06 0.90 0.75 0.69 0.66 0.61 0.69 0.66 0.60 0.56 0.52 0.49 0.45 0.43 0.46 0.50
1.11 1.12 1.12 1.04 1.08 1.03 0.96 0.87 0.82 0.83 0.85 0.88 0.91 1.06 1.28 1.55 1.89 2.04 1.98 1.75 1.48 1.18 0.96 0.83 0.73 0.71 0.66 0.60 0.62 0.70 0.64 0.59 0.57 0.56 0.55 0.52 0.50 0.54
1.10 1.13 1.22 1.06 0.93 0.77 0.75 0.77 0.70 0.67 0.71 0.72 0.74 0.80 0.91 1.10 1.44 1.56 1.56 1.53 1.35 1.12 0.84 0.75 0.68 0.73 0.68 0.57 0.51 0.52 0.56 0.62 0.63 0.61 0.60 0.62 0.63 0.57
0.89 0.90 1.01 1.00 0.81 0.67 0.67 0.68 0.63 0.61 0.64 0.62 0.62 0.66 0.77 0.91 1.06 1.30 1.37 1.30 1.20 0.99 0.78 0.77 0.70 0.69 0.68 0.58 0.52 0.49 0.46 0.46 0.52 0.59 0.65 0.67 0.68 0.63
0.86 0.88 0.98 1.00 0.80 0.68 0.59 0.57 0.53 0.47 0.51 0.58 0.57 0.58 0.67 0.78 0.96 1.16 1.34 1.33 1.21 1.09 1.00 0.98 0.90 0.81 0.73 0.62 0.51 0.46 0.47 0.47 0.50 0.53 0.57 0.70 0.69 0.69
0.90 1.12 1.14 1.08 0.92 0.76 0.68 0.66 0.54 0.46 0.51 0.56 0.57 0.56 0.59 0.71 0.94 1.20 1.39 1.50 1.40 1.24 1.14 1.06 1.01 0.96 0.94 0.76 0.60 0.55 0.56 0.57 0.54 0.53 0.54 0.55 0.57 0.61
0.94 1.12 1.23 1.25 1.15 0.99 0.90 0.82 0.65 0.61 0.65 0.66 0.67 0.71 0.77 0.87 1.03 1.14 1.28 1.42 1.47 1.33 1.18 1.12 1.07 1.10 1.06 0.91 0.78 0.66 0.58 0.56 0.55 0.56 0.58 0.58 0.57 0.57
0.87 1.09 1.27 1.40 1.41 1.37 1.23 1.11 0.98 0.87 0.80 0.80 0.85 0.85 0.87 0.93 1.01 1.13 1.27 1.32 1.30 1.14 1.06 1.06 1.08 1.09 1.08 1.02 0.83 0.62 0.54 0.47 0.45 0.54 0.65 0.65 0.60 0.58
0.78 1.00 1.25 1.44 1.51 1.60 1.58 1.46 1.27 1.11 1.02 0.99 0.97 0.96 0.96 0.95 0.99 1.11 1.25 1.30 1.21 1.07 0.97 0.92 1.02 1.11 1.09 0.95 0.77 0.60 0.49 0.44 0.42 0.48 0.57 0.60 0.51 0.47
0.71 0.87 0.99 1.14 1.32 1.50 1.57 1.56 1.40 1.26 1.25 1.23 1.13 1.07 1.08 1.06 1.04 1.12 1.25 1.32 1.31 1.18 1.07 0.99 1.01 1.05 1.00 0.78 0.57 0.52 0.52 0.48 0.50 0.51 0.52 0.54 0.48 0.43
0.57 0.69 0.77 0.89 1.08 1.33 1.49 1.55 1.49 1.38 1.36 1.38 1.34 1.27 1.25 1.20 1.12 1.08 1.18 1.27 1.30 1.26 1.18 1.08 0.93 0.89 0.87 0.78 0.69 0.57 0.53 0.62 0.65 0.61 0.56 0.56 0.55 0.58
0.61 0.66 0.70 0.81 0.96 1.18 1.39 1.53 1.56 1.48 1.42 1.47 1.46 1.36 1.31 1.27 1.15 1.07 1.11 1.24 1.30 1.29 1.16 1.00 0.87 0.93 1.09 1.20 1.02 0.72 0.60 0.61 0.72 0.75 0.75 0.79 0.73 0.70
0.71 0.71 0.76 0.85 0.99 1.22 1.41 1.50 1.53 1.50 1.45 1.47 1.46 1.37 1.31 1.28 1.17 1.12 1.13 1.18 1.20 1.21 1.17 1.14 1.23 1.28 1.28 1.24 0.99 0.77 0.71 0.71 0.78 0.86 0.85 0.82 0.78 0.70
0.76 0.74 0.76 0.83 1.00 1.20 1.34 1.46 1.49 1.49 1.47 1.44 1.40 1.33 1.28 1.28 1.25 1.22 1.16 1.18 1.22 1.26 1.38 1.41 1.39 1.36 1.25 1.18 1.11 1.00 0.91 0.90 0.94 0.92 0.78 0.70 0.66 0.64